Voltar ao catálogo

STARLINK-5090

AtivoComunicaçõesVLEO
NORAD 56137·PAYLOAD·🇺🇸 United States

Lançado Mar 29, 2023 de Cape Canaveral Space Force Station

Loading…

Próximas Passagens (próximas 24 horas)

TLE

AtualizadoSource: CelesTrak SupGP

Época: Sep 14, 2026, 21:38 UTC

1 56137C 23046AW  26257.90187500 -.00042248  00000+0 -15304-2 0  2572
2 56137  43.0003 158.3382 0001374 267.6961 270.1134 15.27595245    10

Acompanhe STARLINK-5090 em tempo real com AllMySat

Download on the App Store